Вернуться в каталог

COSMOS 1867 COOLANT

LostLEO
NORAD 43327·DEBRIS·🇷🇺 Russia

Запущен Jul 10, 1987 с Baikonur Cosmodrome

Loading…

Ближайшие Пролёты (ближайшие 24 часа)

TLE

УстаревшееSource: Space-Track

Эпоха: Apr 20, 2024, 05:31 UTC

1 43327U 87060AU  24111.22997638  .00002857  00000-0  10576-2 0  9998
2 43327  65.0073  55.3841 0020823 271.1956  88.6744 14.33837929402545

Отслеживайте COSMOS 1867 COOLANT в реальном времени с AllMySat

Download on the App Store